Radiation Dose at Monitoring Post of Fukushima Daini Nuclear Power Station
Date,Time,MP-1(microSv/h),MP-2(microSv/h),MP-3(microSv/h),MP-4(microSv/h),MP-5(microSv/h),MP-6(microSv/h),MP-7(microSv/h),Wind Direction,Wind Velocity(m/s),Rain
2022/06/27,00:00,0.153,0.142,0.224,0.218,0.216,0.120,0.077,south,1.1,No
2022/06/27,00:10,0.153,0.141,0.226,0.217,0.216,0.121,0.078,south,1.9,No
2022/06/27,00:20,0.153,0.142,0.226,0.219,0.218,0.121,0.078,south,1.8,No
2022/06/27,00:30,0.153,0.140,0.225,0.219,0.218,0.119,0.079,south-southwest,2.3,No
2022/06/27,00:40,0.152,0.141,0.226,0.217,0.214,0.121,0.078,south-southwest,2.3,No
2022/06/27,00:50,0.153,0.142,0.226,0.219,0.216,0.121,0.077,south-southwest,2.6,No
2022/06/27,01:00,0.153,0.141,0.225,0.219,0.218,0.120,0.078,southwest,1.5,No
2022/06/27,01:10,0.151,0.142,0.227,0.217,0.215,0.121,0.078,west-southwest,1.5,No
2022/06/27,01:20,0.153,0.142,0.226,0.220,0.215,0.121,0.077,-,CALM,No
2022/06/27,01:30,0.153,0.141,0.223,0.219,0.218,0.120,0.078,west-northwest,3.0,No
2022/06/27,01:40,0.153,0.142,0.226,0.217,0.217,0.121,0.078,west-northwest,2.9,No
2022/06/27,01:50,0.152,0.141,0.226,0.219,0.215,0.120,0.078,west,2.5,No
2022/06/27,02:00,0.153,0.142,0.225,0.219,0.218,0.120,0.078,west,3.9,No
2022/06/27,02:10,0.153,0.142,0.227,0.217,0.216,0.121,0.078,west,4.0,No
2022/06/27,02:20,0.153,0.140,0.224,0.220,0.214,0.121,0.078,west-southwest,3.3,No
2022/06/27,02:30,0.153,0.142,0.227,0.218,0.217,0.120,0.078,west-southwest,3.6,No
2022/06/27,02:40,0.152,0.141,0.226,0.218,0.217,0.121,0.077,west,4.3,No
2022/06/27,02:50,0.153,0.141,0.224,0.219,0.214,0.120,0.079,west-southwest,4.6,No
2022/06/27,03:00,0.153,0.142,0.227,0.218,0.217,0.120,0.078,west-southwest,4.7,No
2022/06/27,03:10,0.152,0.141,0.226,0.217,0.218,0.120,0.077,west,3.3,No
2022/06/27,03:20,0.154,0.142,0.225,0.220,0.215,0.120,0.078,west-northwest,2.1,No
2022/06/27,03:30,0.154,0.142,0.227,0.217,0.217,0.120,0.077,west-northwest,2.0,No
2022/06/27,03:40,0.153,0.141,0.224,0.220,0.217,0.120,0.078,northwest,1.6,No
2022/06/27,03:50,0.153,0.142,0.226,0.219,0.216,0.120,0.079,west-northwest,1.8,No
2022/06/27,04:00,0.153,0.141,0.227,0.217,0.218,0.121,0.078,west,1.9,No
2022/06/27,04:10,0.153,0.142,0.224,0.219,0.217,0.121,0.078,west-southwest,2.5,No
2022/06/27,04:20,0.155,0.142,0.227,0.219,0.216,0.121,0.078,west,1.9,No
2022/06/27,04:30,0.152,0.142,0.226,0.218,0.216,0.121,0.078,west-northwest,2.0,No
2022/06/27,04:40,0.153,0.143,0.224,0.220,0.217,0.120,0.079,west-northwest,2.3,No
2022/06/27,04:50,0.154,0.141,0.227,0.219,0.216,0.120,0.079,west-southwest,1.8,No
2022/06/27,05:00,0.152,0.141,0.224,0.217,0.217,0.121,0.077,southwest,2.5,No
2022/06/27,05:10,0.154,0.142,0.227,0.220,0.218,0.121,0.079,southwest,2.9,No
2022/06/27,05:20,0.153,0.141,0.227,0.218,0.216,0.120,0.078,west-southwest,2.8,No
2022/06/27,05:30,0.152,0.141,0.225,0.217,0.215,0.120,0.078,west-southwest,2.5,No
2022/06/27,05:40,0.153,0.142,0.228,0.219,0.217,0.120,0.078,west-southwest,2.6,No
2022/06/27,05:50,0.155,0.142,0.226,0.219,0.217,0.121,0.078,west-southwest,2.7,No
2022/06/27,06:00,0.153,0.141,0.224,0.218,0.216,0.121,0.078,west,2.9,No
2022/06/27,06:10,0.152,0.141,0.226,0.219,0.215,0.121,0.078,west,1.7,No
2022/06/27,06:20,0.155,0.142,0.227,0.219,0.215,0.120,0.079,west-southwest,1.6,No
2022/06/27,06:30,0.154,0.141,0.224,0.218,0.218,0.120,0.079,southwest,2.0,No
2022/06/27,06:40,0.153,0.143,0.224,0.216,0.217,0.120,0.078,west-southwest,1.9,No
2022/06/27,06:50,0.154,0.141,0.227,0.220,0.215,0.121,0.078,west-southwest,2.1,No
2022/06/27,07:00,0.154,0.141,0.226,0.220,0.215,0.121,0.078,southwest,1.9,Yes
2022/06/27,07:10,0.153,0.142,0.227,0.217,0.215,0.121,0.079,west-southwest,1.3,No
2022/06/27,07:20,0.152,0.143,0.224,0.216,0.216,0.120,0.079,west-southwest,0.6,No
2022/06/27,07:30,0.155,0.143,0.225,0.217,0.218,0.122,0.079,west-northwest,0.6,No
2022/06/27,07:40,0.154,0.141,0.228,0.219,0.219,0.121,0.078,-,CALM,No
2022/06/27,07:50,0.154,0.141,0.228,0.220,0.216,0.121,0.079,south-southeast,1.6,No
2022/06/27,08:00,0.152,0.144,0.225,0.219,0.215,0.122,0.079,south,2.7,No
2022/06/27,08:10,0.153,0.142,0.225,0.218,0.215,0.121,0.078,south-southwest,2.4,No
2022/06/27,08:20,0.155,0.142,0.225,0.218,0.216,0.121,0.078,south-southwest,2.1,No
2022/06/27,08:30,0.154,0.142,0.224,0.217,0.216,0.121,0.079,south,2.1,No
2022/06/27,08:40,0.154,0.142,0.225,0.218,0.216,0.121,0.079,south-southeast,2.4,No
2022/06/27,08:50,0.152,0.141,0.226,0.216,0.216,0.120,0.078,south-southeast,2.5,No
2022/06/27,09:00,0.152,0.141,0.225,0.217,0.217,0.120,0.079,south-southeast,3.3,No
2022/06/27,09:10,0.152,0.141,0.226,0.219,0.216,0.121,0.078,south,4.3,No
2022/06/27,09:20,0.153,0.143,0.226,0.218,0.217,0.121,0.078,south,4.7,No
2022/06/27,09:30,0.152,0.142,0.227,0.220,0.217,0.121,0.079,south,4.5,No
2022/06/27,09:40,0.152,0.142,0.227,0.219,0.218,0.121,0.078,south,3.6,No
2022/06/27,09:50,0.153,0.142,0.228,0.219,0.218,0.121,0.078,south-southeast,3.2,No
2022/06/27,10:00,0.153,0.141,0.229,0.220,0.217,0.121,0.078,south-southeast,4.2,No
2022/06/27,10:10,0.153,0.143,0.229,0.220,0.217,0.121,0.078,south-southeast,4.0,No
2022/06/27,10:20,0.153,0.142,0.227,0.220,0.218,0.121,0.079,south,3.2,No
2022/06/27,10:30,0.153,0.142,0.227,0.219,0.217,0.121,0.079,south,3.2,No
2022/06/27,10:40,0.154,0.142,0.226,0.219,0.217,0.121,0.078,south,3.4,No
2022/06/27,10:50,0.154,0.142,0.225,0.218,0.217,0.121,0.079,south-southeast,3.3,No
2022/06/27,11:00,0.154,0.142,0.226,0.218,0.217,0.121,0.078,south-southeast,4.9,No
2022/06/27,11:10,0.153,0.141,0.226,0.219,0.217,0.121,0.078,southeast,5.7,No
2022/06/27,11:20,0.153,0.142,0.227,0.219,0.217,0.121,0.077,south-southeast,5.9,No
2022/06/27,11:30,0.153,0.142,0.225,0.219,0.216,0.120,0.078,south-southeast,5.4,No
2022/06/27,11:40,0.153,0.142,0.227,0.219,0.217,0.121,0.078,south-southeast,5.7,No
2022/06/27,11:50,0.153,0.142,0.227,0.219,0.217,0.120,0.079,south,5.8,No
2022/06/27,12:00,0.153,0.142,0.228,0.220,0.217,0.121,0.078,south-southeast,4.1,No
2022/06/27,12:10,0.154,0.143,0.228,0.220,0.217,0.121,0.079,south,2.2,No
2022/06/27,12:20,0.154,0.141,0.229,0.220,0.218,0.121,0.078,west-southwest,2.1,No
2022/06/27,12:30,0.154,0.142,0.228,0.220,0.219,0.121,0.078,west-northwest,4.1,No
2022/06/27,12:40,0.154,0.143,0.228,0.221,0.219,0.120,0.078,northwest,4.5,No
2022/06/27,12:50,0.153,0.143,0.227,0.223,0.218,0.121,0.078,west-northwest,9.8,No
2022/06/27,13:00,0.153,0.142,0.225,0.220,0.216,0.121,0.078,west,14.0,Yes
2022/06/27,13:10,0.155,0.143,0.224,0.216,0.214,0.123,0.081,west-northwest,12.4,Yes
2022/06/27,13:20,0.154,0.144,0.224,0.218,0.216,0.124,0.082,west-northwest,9.3,Yes
2022/06/27,13:30,0.158,0.145,0.225,0.218,0.217,0.125,0.083,west-northwest,8.9,Yes
2022/06/27,13:40,0.157,0.146,0.227,0.221,0.220,0.124,0.082,west,5.8,Yes
2022/06/27,13:50,0.156,0.144,0.226,0.220,0.217,0.123,0.081,south-southeast,5.6,Yes
2022/06/27,14:00,0.155,0.144,0.224,0.217,0.215,0.122,0.081,south-southeast,6.9,No
2022/06/27,14:10,0.155,0.144,0.226,0.220,0.217,0.122,0.081,south-southeast,5.5,No
2022/06/27,14:20,0.153,0.143,0.224,0.218,0.218,0.122,0.078,southeast,8.1,No
2022/06/27,14:30,0.154,0.141,0.223,0.215,0.215,0.120,0.079,southeast,8.7,No
2022/06/27,14:40,0.155,0.141,0.222,0.216,0.213,0.121,0.079,south-southeast,8.3,No
2022/06/27,14:50,0.152,0.142,0.225,0.217,0.212,0.120,0.077,south-southeast,6.2,No
2022/06/27,15:00,0.151,0.141,0.225,0.217,0.216,0.120,0.077,south-southeast,4.5,No
2022/06/27,15:10,0.151,0.140,0.222,0.215,0.215,0.119,0.077,south-southeast,1.8,No
2022/06/27,15:20,0.153,0.141,0.221,0.215,0.213,0.119,0.078,east-southeast,1.2,No
2022/06/27,15:30,0.152,0.141,0.224,0.216,0.212,0.120,0.078,east-southeast,0.9,No
2022/06/27,15:40,0.151,0.140,0.225,0.217,0.213,0.119,0.077,-,CALM,No
2022/06/27,15:50,0.152,0.140,0.222,0.215,0.214,0.119,0.077,northwest,0.6,No
2022/06/27,16:00,0.153,0.141,0.221,0.214,0.215,0.119,0.077,north-northwest,2.1,No
2022/06/27,16:10,0.151,0.140,0.225,0.215,0.213,0.119,0.076,northwest,0.9,No
2022/06/27,16:20,0.153,0.140,0.224,0.216,0.215,0.119,0.077,north-northwest,0.6,Yes
2022/06/27,16:30,0.153,0.141,0.222,0.214,0.216,0.119,0.077,-,CALM,Yes
2022/06/27,16:40,0.151,0.140,0.223,0.217,0.216,0.120,0.077,south-southeast,1.3,Yes
2022/06/27,16:50,0.152,0.141,0.225,0.216,0.213,0.120,0.077,-,CALM,No
2022/06/27,17:00,0.153,0.141,0.223,0.215,0.216,0.118,0.077,-,CALM,No
2022/06/27,17:10,0.151,0.140,0.224,0.214,0.216,0.119,0.078,-,CALM,No
2022/06/27,17:20,0.152,0.140,0.225,0.216,0.215,0.119,0.076,north,1.4,No
2022/06/27,17:30,0.153,0.141,0.222,0.214,0.213,0.119,0.077,northwest,3.2,No
2022/06/27,17:40,0.151,0.140,0.223,0.215,0.217,0.119,0.078,west-northwest,3.6,No
2022/06/27,17:50,0.151,0.140,0.225,0.217,0.215,0.120,0.077,west-northwest,5.3,No
2022/06/27,18:00,0.152,0.140,0.223,0.215,0.214,0.118,0.077,northwest,2.1,Yes
2022/06/27,18:10,0.151,0.139,0.222,0.214,0.214,0.119,0.078,northwest,2.8,Yes
2022/06/27,18:20,0.150,0.140,0.225,0.217,0.216,0.120,0.077,south-southwest,1.5,Yes
2022/06/27,18:30,0.153,0.141,0.223,0.216,0.216,0.120,0.078,south-southwest,4.9,Yes
2022/06/27,18:40,0.153,0.140,0.223,0.215,0.212,0.119,0.078,south,3.8,No
2022/06/27,18:50,0.151,0.140,0.225,0.215,0.214,0.120,0.078,south-southwest,6.1,No
2022/06/27,19:00,0.153,0.141,0.224,0.217,0.216,0.120,0.077,south-southwest,6.2,Yes
2022/06/27,19:10,0.154,0.140,0.222,0.216,0.214,0.119,0.078,south-southwest,5.6,Yes
2022/06/27,19:20,0.152,0.140,0.223,0.214,0.214,0.119,0.077,southwest,3.7,Yes
2022/06/27,19:30,0.152,0.142,0.226,0.217,0.214,0.121,0.078,west,3.1,Yes
2022/06/27,19:40,0.154,0.140,0.222,0.216,0.217,0.119,0.077,west-northwest,1.7,No
2022/06/27,19:50,0.153,0.140,0.222,0.214,0.215,0.119,0.077,west-northwest,3.1,No
2022/06/27,20:00,0.151,0.141,0.225,0.215,0.214,0.120,0.078,west-southwest,4.6,No
2022/06/27,20:10,0.153,0.142,0.224,0.216,0.217,0.120,0.076,west-southwest,2.6,No
2022/06/27,20:20,0.153,0.140,0.222,0.215,0.216,0.119,0.077,west,1.9,No
2022/06/27,20:30,0.151,0.140,0.225,0.215,0.214,0.119,0.077,west-northwest,1.2,No
2022/06/27,20:40,0.152,0.140,0.223,0.216,0.213,0.121,0.076,west-northwest,2.3,No
2022/06/27,20:50,0.153,0.139,0.222,0.216,0.218,0.120,0.077,northwest,3.0,No
2022/06/27,21:00,0.152,0.141,0.223,0.213,0.214,0.119,0.077,northwest,0.7,No
2022/06/27,21:10,0.151,0.141,0.224,0.217,0.214,0.121,0.077,south-southeast,1.4,No
2022/06/27,21:20,0.153,0.140,0.222,0.217,0.215,0.119,0.077,south-southeast,1.7,No
2022/06/27,21:30,0.152,0.140,0.224,0.214,0.216,0.119,0.077,south,1.7,No
2022/06/27,21:40,0.151,0.140,0.223,0.217,0.215,0.120,0.077,southwest,2.1,No
2022/06/27,21:50,0.153,0.139,0.222,0.218,0.213,0.120,0.077,west-southwest,4.4,No
2022/06/27,22:00,0.152,0.141,0.225,0.215,0.217,0.120,0.078,south-southwest,2.3,No
2022/06/27,22:10,0.152,0.142,0.223,0.214,0.215,0.119,0.078,southwest,3.1,No
2022/06/27,22:20,0.154,0.141,0.222,0.218,0.213,0.120,0.077,west-southwest,2.2,No
2022/06/27,22:30,0.153,0.141,0.224,0.215,0.216,0.120,0.077,west-northwest,3.3,No
2022/06/27,22:40,0.152,0.140,0.224,0.215,0.217,0.120,0.077,west-northwest,2.5,No
2022/06/27,22:50,0.153,0.141,0.222,0.218,0.214,0.120,0.078,northwest,1.7,No
2022/06/27,23:00,0.152,0.142,0.224,0.215,0.215,0.119,0.077,northwest,2.2,No
2022/06/27,23:10,0.152,0.140,0.223,0.215,0.217,0.121,0.077,west,2.8,No
2022/06/27,23:20,0.153,0.141,0.223,0.217,0.215,0.119,0.078,west-northwest,2.8,No
2022/06/27,23:30,0.152,0.141,0.225,0.214,0.213,0.119,0.078,west-northwest,1.7,No
2022/06/27,23:40,0.153,0.140,0.222,0.216,0.217,0.120,0.078,northwest,0.7,No
2022/06/27,23:50,0.153,0.142,0.223,0.217,0.214,0.119,0.077,east-southeast,1.2,No
